Location: Praha
(50.0830°N, 14.4670°E)
Time: 14:16:09
(UTC+02:00)

ISS - Pass Details

Date: 07 May 2019
Orbit: 408 x 410 km, 51.6° (Epoch: 18 April)

Event Time Altitude Azimuth Distance (km) Brightness Sun altitude
Exits shadow 02:41:42 20° 119° (ESE) 1,009 -1.9 -19.5°
Drops below altitude 10° 02:43:28 10° 90° (E) 1,474 -0.7 -19.4°
Sets 02:45:50 0° 75° (ENE) 2,339 0.7 -19.2°
